Davenport, IA

5:31 PM CST on February 22, 2018 (GMT -0600)
Davenport Municipal

Weather History for KDVN - November, 2013

Change the Weather History Date:

Tuesday, November 5, 2013

  Actual Average Record
Temperature  
Mean Temperature 53 °F 44 °F  
Max Temperature 56 °F 54 °F 74 °F (2008)
Min Temperature 49 °F 34 °F 15 °F (1951)
Degree Days  
Heating Degree Days 12 21  
Month to date heating degree days 98 101  
Since 1 July heating degree days 634 661  
Cooling Degree Days 0 0  
Month to date cooling degree days 0 0  
Year to date cooling degree days 938 786  
Growing Degree Days 2 (Base 50)    
Moisture  
Dew Point 49 °F    
Average Humidity 87    
Maximum Humidity 96    
Minimum Humidity 77    
Precipitation  
Precipitation 0.22 in 0.12 in 1.09 in (1956)
Month to date precipitation 0.24 0.59  
Year to date precipitation 32.31 32.44  
Snow  
Snow 0.00 in - - ()
Month to date snowfall 0.0  
Since 1 July snowfall 2.5  
Since 1 September snowfall 2.5  
Snow Depth 0.00 in    
Sea Level Pressure  
Sea Level Pressure 30.06 in    
Wind  
Wind Speed 12 mph (SSE)    
Max Wind Speed 30 mph    
Max Gust Speed 37 mph    
Visibility 6 miles    
Events Rain    
T = Trace of Precipitation, MM = Missing Value Source: NWS Daily Summary

Daily Weather History Graph

Daily Weather History Graph

Search for Another Location

Airport or City:

Trip Planner

Search our weather history database for the weather conditions in past years. The results will help you decide how hot, cold, wet, or windy it might be!

Date:

Astronomy

Nov. 05, 2013 Rise Set
Actual Time 6:39 AM CST 4:51 PM CST
Civil Twilight 6:10 AM CST 5:21 PM CST
Nautical Twilight 5:37 AM CST 5:54 PM CST
Astronomical Twilight 5:04 AM CST 6:26 PM CST
Moon 8:55 AM CST (11/5) 6:52 PM CST (11/5)
Length of Visible Light 11h 10m
Length of Day
10h 12m
Waxing Crescent, 7% of the Moon is Illuminated
Nov 5
Waxing Crescent
Nov 9
First Quarter
Nov 17
Full
Nov 25
Last Quarter
Dec 2
New

Hourly Weather History & Observations

Time (CST) Temp. Dew Point Humidity Pressure Visibility Wind Dir Wind Speed Gust Speed Precip Events Conditions
12:52 AM 51.1 °F 44.1 °F 77% 30.17 in 10.0 mi South 6.9 mph - N/A   Overcast
1:52 AM 52.0 °F 44.1 °F 74% 30.17 in 10.0 mi South 4.6 mph - N/A   Overcast
2:52 AM 52.0 °F 44.1 °F 74% 30.19 in 10.0 mi South 3.5 mph - N/A   Overcast
3:52 AM 50.0 °F 44.1 °F 80% 30.19 in 10.0 mi SSE 4.6 mph - N/A   Overcast
4:52 AM 50.0 °F 44.1 °F 80% 30.19 in 10.0 mi SE 3.5 mph - N/A   Overcast
5:52 AM 50.0 °F 44.1 °F 80% 30.20 in 10.0 mi SSE 4.6 mph - N/A   Overcast
6:52 AM 48.9 °F 44.1 °F 83% 30.22 in 10.0 mi SSE 5.8 mph - N/A   Overcast
7:52 AM 51.1 °F 45.0 °F 80% 30.21 in 10.0 mi SE 6.9 mph - N/A   Overcast
8:52 AM 51.1 °F 46.9 °F 86% 30.22 in 9.0 mi SE 6.9 mph - 0.00 in   Overcast
9:52 AM 51.1 °F 46.9 °F 86% 30.20 in 7.0 mi SSE 6.9 mph - N/A   Overcast
10:25 AM 51.8 °F 48.2 °F 88% 30.19 in 8.0 mi SE 6.9 mph - N/A   Overcast
10:52 AM 52.0 °F 48.9 °F 89% 30.19 in 3.0 mi SSE 8.1 mph - N/A   Overcast
11:01 AM 51.8 °F 48.2 °F 88% 30.18 in 2.0 mi SSE 8.1 mph - N/A   Overcast
11:10 AM 51.8 °F 50.0 °F 94% 30.18 in 1.2 mi South 6.9 mph - N/A   Overcast
11:44 AM 51.8 °F 50.0 °F 94% 30.17 in 1.8 mi SSE 9.2 mph - N/A   Overcast
11:52 AM 52.0 °F 50.0 °F 93% 30.16 in 2.0 mi SSE 9.2 mph - 0.00 in Rain Light Rain
12:36 PM 51.8 °F 50.0 °F 94% 30.12 in 4.0 mi SSE 10.4 mph - 0.01 in Rain Light Rain
12:52 PM 52.0 °F 50.0 °F 93% 30.13 in 5.0 mi SSE 11.5 mph - 0.01 in Rain Light Rain
1:21 PM 51.8 °F 50.0 °F 94% 30.11 in 3.0 mi SSE 11.5 mph - 0.01 in Rain Light Rain
1:52 PM 53.1 °F 51.1 °F 93% 30.09 in 2.0 mi SSE 11.5 mph - 0.03 in Rain Light Rain
2:21 PM 53.6 °F 51.8 °F 94% 30.07 in 3.0 mi SE 13.8 mph - 0.00 in Rain Light Rain
2:52 PM 53.1 °F 51.1 °F 93% 30.06 in 9.0 mi SSE 15.0 mph 21.9 mph 0.00 in   Overcast
3:12 PM 53.6 °F 51.8 °F 94% 30.03 in 10.0 mi SSE 15.0 mph - 0.00 in   Overcast
3:52 PM 54.0 °F 51.1 °F 90% 30.03 in 9.0 mi SSE 16.1 mph 23.0 mph 0.00 in Rain Light Rain
4:09 PM 53.6 °F 51.8 °F 94% 30.02 in 8.0 mi SSE 16.1 mph - 0.01 in Rain Light Rain
4:37 PM 53.6 °F 50.0 °F 88% 30.01 in 6.0 mi SSE 20.7 mph - 0.01 in Rain Light Rain
4:48 PM 53.6 °F 50.0 °F 88% 30.01 in 5.0 mi SSE 20.7 mph 32.2 mph 0.01 in Rain Light Rain
4:52 PM 53.1 °F 50.0 °F 89% 30.02 in 5.0 mi SSE 17.3 mph 32.2 mph 0.01 in Rain Light Rain
5:35 PM 53.6 °F 50.0 °F 88% 29.98 in 5.0 mi SSE 17.3 mph 25.3 mph 0.00 in   Mostly Cloudy
5:52 PM 53.1 °F 50.0 °F 89% 29.99 in 5.0 mi SSE 21.9 mph 28.8 mph 0.00 in   Overcast
5:59 PM 53.6 °F 50.0 °F 88% 29.98 in 5.0 mi SSE 21.9 mph 27.6 mph N/A   Overcast
6:35 PM 53.6 °F 51.8 °F 94% 29.96 in 5.0 mi SSE 23.0 mph 28.8 mph N/A   Overcast
6:52 PM 54.0 °F 51.1 °F 90% 29.96 in 6.0 mi SSE 21.9 mph 28.8 mph 0.00 in Rain Light Rain
7:37 PM 53.6 °F 51.8 °F 94% 29.96 in 5.0 mi South 23.0 mph 27.6 mph 0.00 in   Overcast
7:52 PM 54.0 °F 51.1 °F 90% 29.95 in 7.0 mi South 21.9 mph 31.1 mph 0.00 in   Overcast
8:52 PM 54.0 °F 52.0 °F 93% 29.93 in 6.0 mi South 21.9 mph 33.4 mph 0.01 in   Overcast
9:24 PM 55.4 °F 51.8 °F 88% 29.91 in 9.0 mi South 26.5 mph 33.4 mph N/A   Overcast
9:52 PM 55.0 °F 52.0 °F 89% 29.93 in 6.0 mi South 23.0 mph 29.9 mph 0.01 in Rain Light Rain
10:07 PM 55.4 °F 51.8 °F 88% 29.90 in 2.5 mi South 21.9 mph 28.8 mph 0.08 in Rain Heavy Rain
10:21 PM 53.6 °F 51.8 °F 94% 29.89 in 4.0 mi South 19.6 mph 26.5 mph 0.12 in Rain Rain
10:52 PM 54.0 °F 52.0 °F 93% 29.89 in 5.0 mi South 19.6 mph 25.3 mph 0.14 in Rain Light Rain
11:32 PM 55.4 °F 51.8 °F 88% 29.87 in 8.0 mi South 18.4 mph - 0.01 in   Overcast
11:52 PM 55.0 °F 52.0 °F 89% 29.87 in 9.0 mi South 17.3 mph 27.6 mph 0.01 in   Overcast